Hourly Data Report for July 09, 2021

FISHER BRANCH (AUT)
MANITOBA
Current Station Operator: ECCC - MSC

51°05'00.100" N
97°33'16.200" W
253.00 m
50309J6
71442
WSZ

Download Data

Hourly Data (July 2021)
Hourly Data Report for July 9, 2021
TIME
LST
Temp Definition
°C
Dew Point Definition
°C
Rel Hum Definition
%
Precip. Amount Definition
mm

Wind Dir Definition
10's deg

Wind Spd Definition
km/h
Visibility Definition
km
Stn Press Definition
kPa
Hmdx Definition


Wind Chill Definition


Weather Definition


00:00 16.7 12.8 78 0.0 12 6   98.40     LegendNANA
01:00 16.5 12.8 79 0.0 14 10   98.38     LegendNANA
02:00 15.0 11.7 80 0.0 15 6   98.37     LegendNANA
03:00 12.4 10.8 90 0.0 10 4   98.36     LegendNANA
04:00 12.1 10.9 92 0.0 19 4   98.38     LegendNANA
05:00 11.4 9.1 86 0.0 22 1   98.41     LegendNANA
06:00 15.0 12.2 83 0.0   0   98.43     LegendNANA
07:00 19.7 15.2 75 0.0 22 5   98.46     LegendNANA
08:00 22.5 15.6 65 0.0 23 11   98.52 27   LegendNANA
09:00 24.8 15.7 57 0.0 23 10   98.52 29   LegendNANA
10:00 25.9 14.9 51 0.0 22 7   98.53 30   LegendNANA
11:00 25.6 14.4 50 0.0 24 11   98.52 29   LegendNANA
12:00 25.3 14.9 53 0.0 31 6   98.53 29   LegendNANA
13:00 28.6 11.4 34 0.0 22 17   98.50 31   LegendNANA
14:00 28.1 11.0 35 0.0 25 15   98.50 30   LegendNANA
15:00 29.5 10.3 30 0.0 26 17   98.46 31   LegendNANA
16:00 28.5 9.6 31 0.0 26 15   98.44 30   LegendNANA
17:00 29.7 10.3 30 0.0 26 14   98.40 31   LegendNANA
18:00 29.2 10.4 31 0.0 28 13   98.39 31   LegendNANA
19:00 28.2 10.8 34 0.0 26 12   98.38 30   LegendNANA
20:00 26.2 12.1 41 0.0 25 10   98.38 29   LegendNANA
21:00 23.3 13.3 54 0.0 24 7   98.45 26   LegendNANA
22:00 21.4 13.3 60 0.0 22 5   98.50     LegendNANA
23:00 17.6 12.3 71 0.0 20 5   98.48     LegendNANA

Notes on Data Quality.

Legend

  • E = Estimated
  • M = Missing
  • NA = Not Available*
  • [empty] = Indicates an unobserved value
Date modified: